Location: New Frontier Mobile Home Park
(32.8448°N, 116.9675°W)
Time: 23:01:17
(UTC+00:00)

VEP-3 - Pass Details

Date: 14 July 2020
Orbit: 1024 x 33719 km, 23.7° (Epoch: 05 August)

Event Time Altitude Azimuth Distance (km) Brightness Sun altitude
Rises 06:21:08 0° 262° (W) 3,884 5.8 -31.2°
Reaches altitude 10° 06:23:09 10° 253° (WSW) 3,169 5.2 -31.4°
Enters shadow 06:26:54 34° 220° (SW) 2,472 4.3 -31.7°
Exits shadow 06:46:59 16° 123° (ESE) 8,687 6.9 -33.3°
Drops below altitude 10° 06:56:00 10° 119° (ESE) 11,640 7.6 -33.8°
Sets 07:28:38 0° 116° (ESE) 20,073 8.9 -35.2°
